This demonstration page uses our WeatherBlox Daily Observations layout. Learn more.

Left ArrowRight Arrow

31.84235, -102.49876

Hourly Observations for May 29, 2017

Temp ( °F °C ) Dew Point ( °F °C ) Humidity (%) Winds ( mph kmh ) Pressure ( in mb ) Visibility ( mi km ) Precip ( " mm )
12:53 am 00:53 Clear 70 21.1 52 11.1 53 53 ESE 8 13 30.00 1016 10 16 0.00 0.00
1:53 am 01:53 Clear 67 19.4 53 11.7 61 61 SE 8 13 30.01 1016 10 16 0.00 0.00
2:53 am 02:53 Clear 65 18.3 53 11.7 66 66 E 5 7 29.98 1015 10 16 0.00 0.00
3:53 am 03:53 Clear 62 16.7 53 11.7 73 73 NNE 6 9 29.99 1016 10 16 0.00 0.00
4:53 am 04:53 Clear 61 16.1 53 11.7 75 75 NE 6 9 30.00 1016 10 16 0.00 0.00
5:53 am 05:53 Clear 59 15 52 11.1 78 78 NE 6 9 30.01 1016 10 16 0.00 0.00
6:53 am 06:53 Sunny 58 14.4 51 10.6 78 78 NNE 6 9 30.02 1017 10 16 0.00 0.00
7:53 am 07:53 Sunny 62 16.7 53 11.7 73 73 NNE 6 9 30.03 1017 10 16 0.00 0.00
8:53 am 08:53 Sunny 69 20.6 56 13.3 63 63 E 6 9 30.03 1017 10 16 0.00 0.00
9:53 am 09:53 Sunny 73 22.8 55 12.8 53 53 ESE 9 15 30.05 1018 10 16 0.00 0.00
10:53 am 10:53 Sunny 77 25 49 9.4 37 37 ESE 17 28 30.07 1018 10 16 0.00 0.00
11:53 am 11:53 Sunny 79 26.1 43 6.1 28 28 E 10 17 30.06 1018 10 16 0.00 0.00
12:53 pm 12:53 Sunny 81 27.2 45 7.2 28 28 ENE 12 19 30.03 1017 10 16 0.00 0.00
1:53 pm 13:53 Sunny 84 28.9 38 3.3 19 19 SE 15 24 30.01 1016 10 16 0.00 0.00
2:53 pm 14:53 Sunny 86 30 33 0.6 15 15 ESE 13 20 29.98 1015 10 16 0.00 0.00
3:53 pm 15:53 Sunny 88 31.1 30 -1.1 12 12 E 12 19 29.95 1014 10 16 0.00 0.00
4:53 pm 16:53 Sunny 87 30.6 28 -2.2 12 12 ESE 12 19 29.92 1013 10 16 0.00 0.00
5:53 pm 17:53 Sunny 87 30.6 34 1.1 15 15 E 9 15 29.89 1012 10 16 0.00 0.00
6:53 pm 18:53 Sunny 86 30 35 1.7 16 16 ESE 14 22 29.88 1012 10 16 0.00 0.00
7:53 pm 19:53 Sunny 84 28.9 34 1.1 17 17 ESE 14 22 29.90 1012 10 16 0.00 0.00
8:53 pm 20:53 Clear 82 27.8 36 2.2 19 19 ESE 12 19 29.92 1013 10 16 0.00 0.00
9:53 pm 21:53 Clear 79 26.1 37 2.8 22 22 E 10 17 29.94 1014 10 16 0.00 0.00
10:53 pm 22:53 Clear 77 25 40 4.4 26 26 ESE 8 13 29.98 1015 10 16 0.00 0.00
11:53 pm 23:53 Clear 76 24.4 44 6.7 32 32 E 10 17 30.00 1016 10 16 0.00 0.00

Powered by AerisWeather